ARCE-1A (47483 NORAD) Tracking and Keplerian Element Data

This shows tracking and keplerian element data for the satellite.

Feedback or suggestion? Click here.




ElementValue
Catalog47483
NameARCE-1A
Epoch Orbit1259
Epoch Day105.91552173
Epoch Year2021
RAAN168.1831
Inclination97.4947
Eccentricity0.0008853
Argument of Perigee330.2016
Mean Anonmoly29.8709
Mean Motion15.1250021
Decay Rate1.381E-05
L11 47483U 21006BY 21105.91552173 .00001381 00000-0 82980-4 0 9991
L22 47483 97.4947 168.1831 0008853 330.2016 29.8709 15.12500210 12594

Live tracking and technical data element details for ARCE-1A (NORAD 47483). ARCE-1A can be tracked NOW for your location showing map with azimuth and elevation plus other details from your city location.

Track the satellite on the map from your city or location and see movement details for azimuth, elevation, latitude, longitude, range, height, and movement on the map or in text.







IsCatalogInMostPopularTable: catalog: 47483, numindb: 17
Update: records affected: 1



GetName: 47483 ARCE-1A

Hit Count: updated at: Fri, 16 Apr 2021 11:10:51 GMT